Location: Borderline Observatory
(42.7345°N, 72.8696°W)
Time: 17:15:01
(UTC-05:00)

Daily predictions for brighter satellites

Satellite Brightness Start Highest point End
(mag) Time Altitude Azimuth Time Altitude Azimuth Time Altitude Azimuth
Cosmos 2297 4.4 16:38:47 10° S 16:43:52 36° ESE 16:48:57 10° NE
Cosmos 2181 Rocket 4.5 16:39:42 10° SSW 16:46:03 70° W 16:52:31 10° N
Cosmos 1544 Rocket 3.6 16:42:15 10° N 16:46:45 87° E 16:51:12 10° S
Cosmos 2278 Rocket 2.3 16:46:26 10° SSW 16:52:06 87° ESE 16:57:47 10° NNE
Cosmos 1975 Rocket 4.3 16:48:41 10° SSW 16:52:47 42° WNW 16:56:56 10° N
COSMO-SKYMED 1 4.2 16:52:13 10° NE 16:54:51 16° E 16:57:28 10° SE
SJ-12 4.1 16:52:50 10° SSE 16:56:48 52° ENE 17:00:50 10° N
NOSS 2-1 (E) 4.4 16:53:46 10° S 16:57:05 28° ESE 17:00:44 10° NE
OE (NEXTSAT) 4.5 16:53:48 10° WSW 16:57:22 73° NNW 17:00:54 10° ENE
Cosmos 921 Rocket 3.8 16:56:10 10° SSE 16:59:58 32° E 17:03:50 10° NE
Meteor 1-18 Rocket 4.3 16:56:15 10° S 17:01:55 86° E 17:07:45 10° N
Cosmos 1666 4.4 17:00:28 10° NE 17:02:37 14° ENE 17:04:46 10° ESE
IDEFIX/ARIANE 42P 2.6 16:58:45 10° SSE 17:03:50 61° ENE 17:08:57 10° N
Thor Agena Rocket 3.7 16:59:22 10° NNE 17:04:32 56° ESE 17:09:42 10° S
Genesis I 3.9 17:00:45 10° NW 17:04:37 60° WSW 17:08:27 10° SSE
Abrixas 2.5 17:02:17 10° WNW 17:05:14 78° SSW 17:08:12 10° ESE
Okean 1 3.3 17:01:37 10° S 17:05:39 74° E 17:09:44 10° NNE
Intercosmos 25 4.0 17:03:48 10° NNE 17:06:26 24° ENE 17:09:16 10° SE
Timation 2 Rocket 4.2 17:00:09 10° NNW 17:06:59 67° ENE 17:13:49 10° SE
Cosmos 1238 Rocket 2.7 17:04:27 10° SSW 17:07:23 61° W 17:10:39 10° N
Cosmos 1833 Rocket 2.9 17:02:14 10° NNW 17:07:43 49° ENE 17:13:08 10° SE
Cosmos 1346 Rocket 2.8 17:05:13 10° S 17:09:01 55° E 17:12:50 10° NNE
Cosmos 1536 Rocket 3.6 17:04:58 10° S 17:09:28 89° E 17:13:58 10° N
USA 234 3.4 17:08:54 10° NE 17:15:26 68° SE 17:21:56 10° SW
Cosmos 2082 Rocket 2.2 17:11:23 10° NNW 17:17:03 67° ENE 17:22:42 10° SSE
YAOGAN 1 2.5 17:15:06 10° SSE 17:19:25 77° ENE 17:23:46 10° N
Cosmos 1500 3.2 17:20:28 10° N 17:24:20 84° W 17:28:11 10° S
Cosmos 1743 2.9 17:23:05 10° N 17:26:52 47° E 17:30:34 10° SSE
CZ-2C R/B 2.6 17:21:51 10° S 17:26:54 82° W 17:32:06 10° NNW
Timation 1 Rocket 4.3 17:21:56 10° SSW 17:27:49 69° ESE 17:33:45 10° NNE
COSMOS 2441 4.4 17:23:27 10° SSE 17:28:13 57° ENE 17:33:02 10° N
MONITOR-E 4.5 17:25:23 10° SSE 17:28:28 46° ENE 17:31:33 10° N
Nadezhda 3 Rocket 4.0 17:23:49 10° S 17:29:58 68° E 17:36:13 10° NNE
NOSS 3-4 (A) 3.9 17:23:10 10° NNW 17:29:59 53° NE 17:37:12 10° SE
NOSS 3-4 (C) 3.9 17:23:16 10° NNW 17:30:05 53° NE 17:37:18 10° ESE
Meteor 1-19 Rocket 4.3 17:34:05 10° S 17:39:48 64° E 17:45:38 10° NNE
SL-8 R/B 4.3 17:36:33 10° W 17:41:09 46° N 17:43:47 23° NE
Cosmos 407 Rocket 4.0 17:38:14 10° N 17:42:55 34° ENE 17:47:35 10° SE
SKYMED 2 3.7 17:39:27 13° NNE 17:43:14 50° E 17:47:26 10° S
Cosmos 1484 Rocket 2.6 17:41:44 10° SSE 17:45:25 64° ENE 17:49:07 10° N
Cosmos 2056 Rocket 3.8 17:40:52 10° S 17:45:58 46° ESE 17:49:18 20° NE
GRACE-2 3.7 17:45:07 10° S 17:47:53 88° E 17:49:49 18° N
ERBS 4.2 17:45:32 10° NNW 17:47:17 17° NNE 17:47:17 17° NNE
GRACE-1 3.7 17:45:32 10° S 17:48:19 89° WNW 17:50:18 17° N
SMAP 4.2 17:47:11 10° S 17:51:38 45° W 17:56:07 10° NNW
Meteor 2-9 Rocket 4.1 17:49:57 10° N 17:55:18 58° ENE 18:00:32 10° SSE
Meteor 1-15 Rocket 4.5 17:49:55 10° N 17:55:37 48° ENE 18:01:12 10° SSE
Cosmos 2369 Rocket 3.5 17:51:38 10° SSE 17:54:58 20° ESE 17:54:58 20° ESE
BREEZE-M R/B 4.4 17:45:43 10° WSW 17:56:14 62° NNW 17:59:08 27° NE
Okean 2 3.8 17:52:46 10° SSE 17:56:39 39° E 17:57:07 37° ENE
Cosmos 1892 Rocket 4.0 17:54:15 10° SSE 17:58:15 38° E 17:58:40 37° ENE
Cosmos 1624 Rocket 3.9 17:53:38 10° S 17:58:46 66° ESE 18:02:04 22° NNE
NOAA 12 4.2 17:55:42 10° SE 18:00:45 48° ENE 18:05:47 10° N
Meteor 1-23 Rocket 4.2 17:56:51 10° S 18:02:27 62° E 18:07:33 12° NNE
Cosmos 1726 Rocket 3.7 17:59:22 10° N 18:03:44 51° ENE 18:08:05 10° SSE
Meteor 2-4 Rocket 3.5 17:58:35 10° S 18:03:54 73° E 18:09:04 11° NNE
Okean 1-7 Rocket 4.0 17:59:55 10° SSW 18:04:22 65° W 18:08:50 10° N
Cosmos 1371 Rocket 4.0 17:59:23 10° SSW 18:04:46 90° NW 18:08:53 18° NNE
CZ-4 R/B 4.2 18:04:35 10° SW 18:07:45 21° W 18:10:55 10° NW
Tiangong 1 1.1 18:06:34 10° W 18:09:19 70° W 18:09:19 70° W
Meteor 2-8 Rocket 4.3 18:04:14 10° S 18:10:13 65° E 18:16:17 10° NNE
ISS -1.1 18:09:14 10° NW 18:10:48 17° NNW 18:10:48 17° NNW
Cosmos 1934 Rocket 3.9 18:05:56 10° N 18:12:11 79° E 18:18:29 10° S
BREEZE-M DEB (TANK) 4.2 18:10:20 10° WNW 18:15:34 35° N 18:15:38 35° N
NOSS 7 (H) 4.5 18:13:15 10° SSW 18:16:13 65° S 18:16:13 65° S
Cosmos 1340 4.1 18:17:08 10° S 18:18:56 26° SSE 18:18:56 26° SSE
Cosmos 1606 Rocket 3.6 18:18:48 10° N 18:23:18 81° W 18:27:46 10° S
METEOR-M 4.0 18:22:07 10° SSE 18:27:25 72° ENE 18:32:45 10° N
COSMO-SKYMED 1 3.4 18:28:03 16° N 18:31:17 48° WNW 18:35:27 10° SW
Cosmos 1452 Rocket 3.9 18:29:46 10° S 18:33:52 46° SE 18:33:52 46° SE
Cosmos 1190 Rocket 4.1 18:29:37 10° NNW 18:34:51 72° WSW 18:40:01 10° S
GEOS 3 Rocket 3.4 18:36:10 66° ENE 18:36:16 66° NE 18:41:22 10° NNW
Cosmos 1666 4.0 18:34:51 10° NNW 18:38:30 40° W 18:42:09 10° SSW
Cosmos 1025 Rocket 4.2 18:35:13 10° SSW 18:39:22 41° WNW 18:42:26 17° NNW
Cosmos 1153 Rocket 4.3 18:44:13 10° N 18:50:23 75° E 18:56:30 10° SSE
Cosmos 1605 Rocket 4.2 18:51:24 10° NNW 18:57:38 67° W 19:03:44 10° S
USA 234 4.0 18:56:14 35° NNE 18:58:14 45° NNW 19:04:22 10° W
CZ-3B DEB 4.0 18:55:49 10° WNW 19:01:28 40° N 19:04:32 34° NE
BREEZE M DEB (TANK) 4.4 19:26:24 10° WNW 19:31:23 65° SSW 19:34:19 48° SSE
Cosmos 2369 Rocket 3.6 19:33:41 10° SW 19:36:50 33° SW 19:36:50 33° SW
FALCON 9 R/B 3.8 19:35:42 10° W 19:49:07 41° SSW 19:49:07 41° SSW
